Regional Weather Roundup
Issued by NWS Little Rock, AR

Home | Current Version | Previous Version | Text Only | Print | Product List | Glossary On
Versions: 1 2 3 4 5 6 7 8 9 10 11 12 13 14 15 16 17 18 19 20 21 22 23 24 25
948
ASUS44 KLZK 221405
RWRLZK

WEATHER ROUNDUP FOR ARKANSAS
NATIONAL WEATHER SERVICE LITTLE ROCK AR
900 AM CDT FRI MAY 22 2015

NOTE: "FAIR" INDICATES FEW OR NO CLOUDS BELOW 12,000 FEET WITH NO
SIGNIFICANT WEATHER AND/OR OBSTRUCTIONS TO VISIBILITY.

ARZ001-003-010-029-221500-
NORTHWEST ARKANSAS

CITY           SKY/WX    TMP DP  RH WIND       PRES   REMARKS
FAYETTEVILLE   MOSUNNY   56  49  77 MISG      30.28R
FORT SMITH     PTSUNNY   58  50  75 E8        30.28R
HARRISON       SUNNY     54  49  83 S9        30.29S
BENTONVILLE    SUNNY    N/A N/A N/A S8        30.28S
ROGERS         SUNNY     57  48  72 SE10      30.29R
SILOAM SPGS    PTSUNNY   57  46  67 S7        30.30R
HIGHFILL       MOSUNNY   56  48  74 S8        30.28R
SPRINGDALE     MOSUNNY   55  48  76 SE9       30.30R
$$

ARZ004-005-016-221500-
NORTH CENTRAL ARKANSAS

CITY           SKY/WX    TMP DP  RH WIND       PRES   REMARKS
BATESVILLE     SUNNY     55  48  76 S6        30.32R
FLIPPIN        SUNNY     54  50  87 E3        30.29F
MTN HOME       SUNNY     55  50  83 SE5       30.29S
$$

ARZ040-041-221500-
WEST CENTRAL ARKANSAS

CITY           SKY/WX    TMP DP  RH WIND       PRES   REMARKS
MENA           SUNNY     59  52  77 NE8       30.29R
MOUNT IDA      SUNNY     58  48  69 VRB5      30.27R
$$

ARZ009-017-025-026-028-221500-
NORTHEAST ARKANSAS

CITY           SKY/WX    TMP DP  RH WIND       PRES   REMARKS
CORNING          N/A     55  48  76 CALM      30.32S
JONESBORO      SUNNY     58  47  66 SE5       30.32R
NEWPORT        SUNNY     59  49  69 E3        30.33R
WALNUT RIDGE   SUNNY     57  48  72 CALM      30.32S
BLYTHEVILLE    SUNNY     59  51  75 VRB3      30.32R
NW BLYTHEVILLE SUNNY     61  48  63 CALM      30.32
$$

ARZ022-023-033-042-044-221500-
CENTRAL ARKANSAS

CITY           SKY/WX    TMP DP  RH WIND       PRES   REMARKS
LITTLE ROCK    MOSUNNY   59  48  67 E10       30.30S
N LITTLE ROCK  MOSUNNY   58  50  76 E8        30.30S
JACKSONVILLE   SUNNY     59  49  70 E9        30.30S
HOT SPRINGS    SUNNY     57  47  69 E10       30.29R
RUSSELLVILLE   MOSUNNY   58  49  72 E6        30.30S
CLINTON        FAIR      57  50  77 SE3       30.32F
$$

ARZ036-221500-
EAST ARKANSAS

CITY           SKY/WX    TMP DP  RH WIND       PRES   REMARKS
WEST MEMPHIS   SUNNY     59  50  72 E5        30.31R
$$

ARZ050-053-066-070-073-221500-
SOUTHWEST ARKANSAS

CITY           SKY/WX    TMP DP  RH WIND       PRES   REMARKS
ARKADELPHIA    FAIR      60  52  75 VRB6      30.30S
CAMDEN         SUNNY     57  48  72 NE8       30.29S
TEXARKANA      SUNNY     56  49  77 VRB7      30.26R
EL DORADO      SUNNY     57  49  74 E13       30.27S
DE QUEEN       CLOUDY    58  49  72 E7        30.26R
$$

ARZ056-057-069-221500-
SOUTHEAST ARKANSAS

CITY           SKY/WX    TMP DP  RH WIND       PRES   REMARKS
PINE BLUFF     MOSUNNY   58  50  75 E13       30.30R
STUTTGART      MOSUNNY   59  48  67 E9        30.30S
MONTICELLO     MOSUNNY   58  51  78 E13       30.29R

$$





USA.gov is the U.S. government's official web portal to all federal, state and local government web resources and services.